Bengaluru International Airport

Airport
ICAO code: 
VOBL
Summary
ICAO Region: 
APAC
Territory: 
Location: 
Bangalore, Karnataka,
Coordinates: 
Aerial View: 
13° 12' 21.65" N, 77° 42' 17.768" E
Airport WX: 
Cumulonimbus
Metar
Observation
VOBL 190100Z VRB02KT 1200 R09R/2000 BR SCT006 16/16 Q1018 TEMPO 0800 FG
Station
BENGALURU
Date/Time
2022-01-19 01:00:00
Wind speed
02 kts
Lowest cloud amount
scattered clouds
Temperature
16°C
Dew point
16°C
Humidity
100%
QNH
1018 hPa
Weather condition
n/a

Description

Bengaluru International Airport is an international airport serving the Indian city of Bangalore and is located 4 km south of Devanahalli and is 40 km from the central business district of Bangalore, in the state of Karnataka, India.

Climatology

Tropical Savanna climate (Köppen climate classification Aw) - monthly mean temperatures above 18°C, and a pronounced dry season. A Tropical Savanna climate has more pronounced dry seasons than a Tropical Monsoon climate.

Runways

Designator Length Width Surface Rops
9/27 4000 45 paved Yes/Yes
Airport map: 
Aerial View: 

SKYbrary Partners:

Safety knowledge contributed by: